Wind_Speed
9 8 7 6 6 7 7 7 8 9 9 9 9 9 9 9 10 9 9 7 6 5 5 3 2 1 1 2 1 1 3 4 4 4 4 4 5 6 5 5 6 6 5
9 8 7 6 6 7 7 7 8 8 9 9 9 9 9 9 9 9 9 7 6 5 5 3 2 2 1 1 1 2 3 4 4 4 4 5 6 5 4 4 5 6 5
8 8 8 7 7 7 7 7 8 8 8 9 9 9 9 9 9 8 8 7 6 5 4 3 2 1 1 1 1 2 3 3 3 5 4 5 5 4 4 4 5 5 5
8 8 8 8 8 7 7 7 7 8 8 8 8 8 9 9 8 8 7 7 5 4 4 3 2 1 1 2 2 3 3 3 3 3 4 3 3 4 4 4 5 5 5
8 7 8 8 8 7 7 7 8 8 8 8 8 8 8 8 8 8 6 6 5 4 4 3 2 0 1 1 1 1 3 3 3 3 4 3 3 3 3 4 4 5 5
7 7 7 8 8 7 7 7 8 8 8 8 8 8 7 7 8 7 7 6 4 4 4 3 2 1 1 1 1 2 2 2 2 2 2 2 2 3 3 4 4 4 5
7 7 7 7 7 7 7 8 8 8 8 8 8 8 8 7 7 7 6 6 4 4 3 3 2 1 0 1 1 2 2 2 2 2 2 2 2 2 3 3 3 3 4
8 8 7 7 7 7 8 8 8 8 8 8 8 8 8 7 7 6 6 5 4 3 3 2 1 0 0 1 1 2 2 2 3 2 2 2 2 2 3 3 3 4 4
8 8 7 7 7 7 8 8 8 8 8 8 9 8 8 8 7 7 6 5 4 3 3 2 1 1 1 2 1 2 3 3 3 3 3 3 2 3 4 3 3 4 4
8 8 8 7 7 7 8 8 9 9 8 8 8 8 8 8 7 7 6 5 4 4 3 3 2 1 1 2 2 3 3 3 3 3 3 3 3 4 4 5 5 6 6
8 8 8 8 7 7 8 8 8 9 8 8 8 7 7 7 7 7 6 6 5 4 4 3 3 3 2 2 2 3 3 3 2 2 3 4 4 4 5 5 5 6 7
9 9 9 9 8 8 8 8 8 9 8 8 8 8 8 7 7 6 6 6 5 5 5 5 5 4 4 3 4 4 4 4 4 4 5 5 5 5 5 5 5 6 7
9 9 9 9 9 9 9 9 9 9 9 9 9 9 9 8 7 7 6 6 6 6 6 6 6 6 6 5 5 5 5 5 5 6 6 6 6 5 5 6 6 6 7
11 10 10 10 10 10 10 10 10 9 9 9 9 9 9 8 8 8 7 6 6 6 7 7 6 7 7 6 6 6 6 6 7 7 7 7 6 6 6 6 6 6 7
12 11 11 11 11 11 11 11 11 10 9 9 9 9 9 9 9 9 9 8 8 7 7 7 7 7 7 7 7 7 7 7 7 7 8 8 7 6 6 6 6 6 6
12 12 12 12 11 11 12 12 11 10 10 9 9 10 10 10 9 10 10 10 10 9 8 8 9 8 8 9 9 9 9 8 8 8 8 8 7 6 6 6 6 7 7
13 14 14 12 13 13 12 11 11 10 10 9 10 11 11 11 10 10 10 9 10 10 10 10 10 10 10 10 10 10 10 10 9 8 8 7 7 7 7 7 8 8 9
13 14 15 14 13 14 13 12 11 11 11 10 11 11 11 11 11 10 10 10 9 9 10 11 10 10 10 10 10 11 11 11 10 10 9 8 8 7 7 8 9 9 10
15 15 15 14 14 14 14 13 12 12 12 11 10 11 11 11 11 11 11 10 9 10 10 11 11 11 11 11 11 11 11 12 11 11 10 10 9 8 8 8 9 9 9
16 16 15 15 14 15 14 13 13 13 13 11 11 11 11 12 12 11 11 10 10 10 11 11 11 11 11 11 11 11 12 12 12 12 11 11 11 10 9 9 9 9 10
17 16 15 15 15 16 15 14 14 13 12 12 11 11 12 12 12 11 11 11 11 11 11 11 11 11 12 12 11 11 12 12 13 12 12 12 11 11 11 11 11 10 11
18 18 17 16 16 16 16 15 14 13 13 13 13 13 13 12 13 12 12 13 13 12 12 12 12 12 12 12 12 12 12 12 12 13 13 12 12 12 12 13 12 12 12
19 19 18 17 17 17 16 15 15 14 14 15 14 13 13 13 14 14 13 13 14 13 13 13 13 13 12 12 12 13 13 13 13 12 14 14 13 12 12 13 13 13 13
20 19 18 18 18 18 17 16 16 15 15 15 14 14 14 14 14 14 14 14 14 14 14 14 14 13 13 13 13 13 13 13 14 14 14 14 14 13 13 13 13 14 15
19 19 19 19 18 18 18 16 17 17 16 15 14 14 14 14 14 14 14 16 16 16 15 15 14 14 14 14 13 13 13 13 13 14 13 13 13 13 13 12 12 13 14
19 19 19 19 19 18 18 17 17 17 16 15 15 15 15 15 15 15 15 16 17 17 16 16 16 15 14 14 14 14 14 14 15 15 14 14 13 13 13 13 13 13 13
Wind_Direction
4 358 348 351 358 6 8 11 14 14 13 13 12 14 11 7 4 3 3 1 2 6 16 34 76 72 49 62 66 145 150 166 168 171 176 178 181 184 190 197 195 190 190
2 1 359 2 2 6 9 12 15 16 13 11 10 12 10 7 6 8 6 6 7 17 25 50 79 77 92 95 135 139 138 139 166 176 176 176 173 177 190 193 185 187 184
0 359 360 1 360 1 5 9 12 13 11 10 8 10 10 8 5 9 11 15 16 18 18 36 47 81 108 149 161 150 140 123 140 163 171 173 169 168 170 176 175 172 168
357 358 0 5 4 6 7 7 10 9 8 6 3 5 7 7 7 9 13 15 16 20 22 20 17 70 166 161 148 128 122 117 128 141 158 164 166 167 166 166 173 169 169
350 353 356 1 6 9 9 7 7 3 4 3 0 1 4 5 6 5 6 8 13 11 13 17 5 349 204 221 179 131 119 122 124 125 140 146 159 163 174 172 186 193 193
349 351 355 1 9 6 3 1 360 358 358 358 357 357 356 357 360 359 353 355 2 359 359 11 13 304 185 169 179 159 160 160 128 143 147 152 158 144 155 171 177 186 188
350 351 354 1 6 360 358 357 353 352 352 352 353 351 348 349 352 354 350 347 348 348 349 1 8 297 197 162 181 197 197 197 197 183 183 177 176 171 174 178 177 173 182
349 349 350 354 360 357 356 355 352 349 347 345 344 343 343 347 347 347 345 338 330 327 327 335 329 297 140 167 180 208 223 215 200 195 194 197 192 201 204 200 202 205 191
343 345 346 347 352 354 352 350 349 346 341 339 339 339 337 339 340 339 337 330 318 312 307 307 313 241 225 231 234 231 237 229 217 210 211 211 216 238 239 232 226 219 217
340 341 341 343 345 348 346 344 344 344 342 337 335 335 334 331 330 327 324 319 312 303 295 292 284 258 234 241 246 241 243 236 233 231 229 240 248 245 246 252 248 234 229
338 338 337 338 341 342 339 337 337 337 339 333 328 327 327 325 322 319 314 310 301 295 287 278 275 272 270 261 245 245 257 249 237 255 259 257 259 252 251 257 259 248 237
334 334 331 329 330 332 331 330 329 330 330 328 323 319 317 318 315 314 310 299 290 285 279 270 264 264 264 269 251 253 256 249 252 263 272 272 265 256 250 253 255 253 246
326 329 328 324 324 325 326 326 325 324 322 320 318 314 312 309 306 302 302 292 284 275 271 271 264 258 260 262 259 255 255 256 256 262 272 271 268 260 256 251 248 252 245
321 318 322 316 313 314 318 319 317 316 314 314 314 310 308 305 299 297 290 286 277 267 270 272 267 255 254 254 257 260 260 259 258 263 272 270 268 263 261 256 250 247 241
318 313 312 309 308 307 308 312 310 309 308 307 308 307 304 302 295 294 286 278 269 266 268 268 266 256 254 251 253 255 257 260 260 264 269 268 266 266 260 254 248 238 243
315 314 315 306 307 306 304 303 305 304 301 299 301 301 303 305 302 296 284 275 268 263 263 264 263 256 255 255 254 253 254 255 264 262 264 263 257 256 256 252 251 246 249
310 312 313 308 305 305 300 298 297 296 297 300 300 299 299 301 300 296 286 276 267 264 262 260 261 258 257 257 257 253 253 255 256 256 256 256 253 254 254 252 251 249 251
306 309 309 308 305 305 300 294 293 294 294 297 299 299 298 297 296 290 283 277 266 264 261 258 258 259 256 255 253 248 249 251 252 252 254 256 255 258 257 256 255 253 253
301 302 303 306 304 304 303 295 293 290 292 294 295 299 299 297 293 285 278 273 269 268 263 256 256 259 257 255 251 249 249 248 249 250 252 254 257 260 261 260 259 258 259
297 298 298 302 304 302 299 293 294 293 290 291 293 297 299 296 292 283 275 271 266 265 263 257 255 256 256 256 255 253 251 246 246 246 249 252 258 261 262 261 261 261 262
297 297 297 299 298 297 298 296 295 295 291 292 299 300 296 294 292 282 271 267 261 261 262 260 254 254 256 253 251 252 248 245 246 246 248 252 256 261 261 260 261 262 262
293 293 290 290 291 292 293 292 290 289 287 288 294 296 294 290 287 279 270 265 260 260 259 259 256 257 256 253 251 249 247 244 245 247 248 253 258 261 260 259 261 262 261
288 289 288 287 288 287 287 283 282 286 284 286 289 292 292 289 288 283 272 262 259 260 259 258 257 260 253 252 254 251 247 243 244 247 249 252 256 260 263 263 264 262 261
287 286 286 283 285 283 285 282 279 282 283 287 286 288 290 288 286 282 272 262 259 260 259 259 261 258 256 253 254 253 250 249 249 249 250 251 255 260 262 264 264 264 263
283 283 284 281 282 283 284 282 281 282 283 284 285 286 287 286 283 281 273 263 260 259 259 260 261 258 256 252 250 250 251 251 253 253 252 255 258 260 261 263 264 265 263
281 281 284 282 281 281 283 283 279 279 280 281 282 284 285 283 282 278 271 266 262 262 258 257 259 258 256 252 249 251 253 253 252 252 253 255 259 260 261 261 262 262 263
Height
5880 5879 5879 5878 5877 5876 5875 5875 5874 5874 5873 5873 5873 5872 5872 5871 5870 5869 5868 5867 5867 5867 5867 5867 5868 5869 5869 5869 5869 5870 5871 5871 5872 5873 5874 5875 5876 5877 5877 5879 5879 5880 5881
5880 5879 5879 5878 5877 5876 5875 5875 5874 5874 5873 5873 5873 5872 5872 5871 5870 5869 5868 5867 5867 5868 5868 5868 5869 5870 5870 5870 5870 5871 5871 5872 5873 5873 5874 5875 5876 5877 5878 5879 5879 5880 5881
5880 5879 5878 5878 5877 5876 5875 5874 5874 5874 5873 5873 5872 5872 5872 5871 5870 5869 5868 5868 5868 5868 5869 5869 5870 5870 5870 5871 5871 5871 5872 5873 5873 5873 5874 5875 5876 5877 5878 5879 5880 5880 5881
5880 5879 5878 5877 5876 5875 5875 5874 5874 5874 5873 5873 5872 5872 5872 5871 5870 5870 5869 5869 5869 5869 5869 5869 5870 5870 5870 5871 5871 5872 5872 5873 5873 5874 5874 5875 5876 5876 5877 5879 5880 5880 5881
5880 5880 5878 5877 5876 5875 5874 5874 5874 5873 5873 5873 5872 5872 5871 5871 5870 5870 5869 5869 5869 5869 5869 5869 5870 5870 5871 5871 5871 5872 5873 5874 5874 5874 5875 5876 5876 5877 5877 5878 5879 5880 5881
5880 5879 5878 5877 5876 5875 5874 5874 5873 5873 5872 5872 5872 5871 5871 5870 5870 5869 5869 5869 5869 5869 5869 5870 5870 5870 5871 5871 5872 5872 5873 5874 5874 5875 5875 5876 5877 5877 5877 5878 5878 5879 5880
5880 5879 5878 5877 5876 5875 5874 5873 5873 5873 5872 5872 5871 5871 5870 5870 5869 5869 5869 5869 5869 5869 5869 5870 5870 5870 5871 5871 5872 5872 5873 5873 5874 5875 5875 5876 5877 5877 5878 5878 5878 5879 5880
5879 5878 5877 5876 5875 5874 5874 5873 5873 5872 5871 5871 5871 5870 5870 5869 5869 5868 5868 5868 5868 5868 5869 5869 5870 5870 5871 5872 5872 5872 5873 5873 5874 5874 5875 5876 5876 5877 5877 5878 5878 5879 5879
5879 5878 5877 5876 5875 5874 5874 5873 5872 5872 5871 5870 5870 5870 5869 5868 5868 5868 5868 5868 5868 5868 5868 5869 5869 5870 5870 5871 5872 5872 5873 5873 5874 5874 5875 5875 5876 5876 5877 5877 5878 5878 5879
5878 5877 5876 5876 5875 5874 5873 5873 5872 5871 5870 5870 5869 5869 5868 5868 5867 5867 5867 5867 5867 5867 5868 5868 5869 5869 5870 5871 5871 5872 5872 5873 5873 5874 5874 5875 5875 5876 5876 5876 5877 5877 5878
5877 5876 5876 5875 5874 5873 5873 5872 5871 5870 5870 5869 5868 5868 5867 5867 5866 5866 5866 5866 5866 5866 5867 5867 5868 5868 5869 5870 5871 5871 5872 5872 5873 5873 5873 5874 5874 5875 5875 5875 5876 5876 5877
5876 5875 5875 5874 5873 5873 5872 5871 5870 5870 5869 5868 5867 5867 5866 5866 5865 5865 5865 5865 5865 5865 5866 5866 5867 5867 5868 5869 5869 5870 5871 5872 5872 5872 5873 5873 5873 5873 5874 5874 5874 5875 5876
5875 5874 5873 5873 5872 5872 5871 5870 5869 5868 5868 5867 5866 5865 5865 5864 5864 5864 5863 5863 5864 5864 5864 5865 5866 5866 5867 5868 5868 5869 5870 5871 5871 5871 5871 5872 5872 5872 5872 5873 5873 5874 5874
5874 5873 5872 5872 5871 5871 5870 5869 5868 5867 5866 5865 5865 5864 5863 5862 5862 5862 5862 5862 5862 5862 5863 5864 5864 5865 5866 5866 5867 5868 5869 5869 5870 5870 5870 5870 5871 5871 5871 5871 5872 5872 5873
5872 5871 5871 5870 5870 5869 5868 5867 5866 5865 5864 5863 5863 5862 5861 5861 5860 5860 5860 5860 5860 5860 5861 5862 5863 5863 5864 5865 5865 5866 5867 5868 5868 5869 5869 5869 5869 5869 5870 5870 5870 5871 5871
5870 5870 5869 5868 5867 5867 5866 5865 5864 5863 5862 5861 5861 5860 5859 5858 5858 5858 5858 5857 5857 5858 5859 5860 5861 5861 5862 5863 5863 5864 5865 5866 5866 5867 5867 5867 5868 5868 5868 5868 5869 5869 5869
5868 5867 5866 5865 5864 5864 5863 5862 5861 5860 5859 5859 5858 5858 5857 5856 5856 5855 5855 5855 5855 5856 5856 5857 5858 5859 5860 5860 5861 5862 5863 5864 5864 5865 5865 5866 5866 5866 5867 5867 5867 5867 5868
5865 5864 5863 5862 5861 5861 5860 5859 5858 5857 5856 5856 5856 5855 5854 5854 5853 5853 5852 5852 5852 5853 5854 5854 5855 5856 5857 5858 5858 5859 5860 5861 5862 5862 5863 5864 5864 5864 5865 5865 5865 5865 5866
5862 5861 5860 5859 5859 5858 5857 5856 5855 5855 5854 5853 5853 5852 5852 5851 5850 5850 5850 5850 5850 5850 5851 5852 5852 5853 5854 5855 5855 5856 5857 5858 5859 5860 5861 5861 5862 5862 5862 5862 5863 5863 5864
5859 5858 5857 5856 5855 5854 5854 5853 5852 5851 5851 5850 5850 5849 5849 5848 5847 5847 5847 5847 5847 5848 5848 5848 5849 5850 5850 5851 5852 5853 5854 5855 5856 5857 5858 5859 5859 5859 5859 5860 5860 5861 5861
5855 5854 5853 5853 5852 5851 5850 5849 5849 5848 5848 5847 5846 5846 5845 5845 5844 5844 5844 5844 5845 5845 5845 5845 5846 5847 5847 5848 5849 5850 5850 5852 5853 5854 5855 5856 5856 5856 5857 5857 5858 5858 5858
5851 5850 5849 5849 5848 5847 5847 5846 5846 5845 5844 5843 5843 5842 5842 5841 5841 5841 5841 5842 5842 5842 5842 5842 5843 5843 5844 5845 5846 5847 5848 5849 5850 5851 5852 5853 5853 5854 5854 5854 5855 5855 5856
5846 5846 5845 5844 5844 5843 5842 5841 5841 5841 5840 5839 5839 5838 5838 5837 5837 5837 5837 5838 5839 5839 5839 5839 5840 5840 5841 5842 5843 5844 5845 5846 5846 5848 5849 5850 5850 5851 5851 5851 5852 5852 5852
5842 5841 5840 5840 5840 5839 5838 5837 5837 5837 5837 5836 5836 5835 5834 5833 5833 5833 5833 5834 5835 5835 5835 5836 5836 5837 5838 5838 5839 5840 5842 5842 5843 5844 5846 5846 5847 5847 5848 5848 5848 5849 5849
5837 5836 5835 5835 5835 5834 5834 5833 5832 5832 5831 5831 5831 5831 5830 5830 5829 5829 5829 5830 5831 5831 5832 5832 5833 5834 5834 5835 5836 5837 5838 5839 5840 5841 5842 5843 5844 5844 5844 5845 5845 5845 5845
5831 5831 5830 5830 5830 5829 5829 5828 5828 5828 5827 5828 5827 5827 5826 5826 5826 5825 5825 5825 5826 5827 5828 5828 5829 5830 5831 5832 5832 5833 5834 5835 5836 5837 5838 5839 5840 5840 5841 5841 5842 5842 5842